Retour au catalogue

STARLINK-2457

ActifCommunicationsVLEO
NORAD 48321·PAYLOAD·🇺🇸 United States

Lancé Apr 29, 2021 depuis Cape Canaveral Space Force Station

Loading…

Prochains Passages (prochaines 24 heures)

TLE

FraisSource: CelesTrak SupGP

Époque: Sep 14, 2026, 21:28 UTC

1 48321C 21036AX  26257.89493056  .00013047  00000+0  41950-3 0  2579
2 48321  53.1587 300.5497 0001357  77.3133 163.7378 15.31700523    10

Suivez STARLINK-2457 en temps réel avec AllMySat

Download on the App Store